[[{"header":{"parameterUnit":"m.s-1","parameterCategory":1,"la1":30.2991,"la2":30.254,"lo1":-89.0895,"lo2":-89.0444,"dy":0.0017,"dx":0.0017,"nx":28,"ny":28,"refTime":"2024-12-09T09:00:00:Z","depth":0,"parameterNumber":2,"parameterNumberName":"U-component_of_WINDS"},"data":[0,0,0,0,0,0,0,0,0,0,0,0,0,0,0,0,0,0,0,0,0,0,0,0,0,0,0,0,0,0,0,0,0,0,0,0,0,0,0,0,0,0,0,0,0,0,0,0,0,0,0,0,0,0,0,0,0,0,0.9909,0.9909,0,0.9908,0.9908,0.9908,0.9876,0.9875,0.9874,0.9873,0.9875,0.9876,0.9877,0,0,0,0,0,0,0,0,0,0,0,0,0,0.9884,0.9884,0.9909,0.9909,0.9909,0.9908,0.9908,0.9908,0.9876,0.9875,0.9874,0.9873,0.9875,0.9876,0.9877,0,0,0,0,0,0,0,0,0,0,0,0,0,0.989,0.9885,0.9909,0.9892,0.9891,0.9908,0.9908,0.9908,0.9876,0.9875,0.9874,0.9872,0.9875,0.9876,0.9877,0.991,0,0,0.9881,0.9882,0,0,0,0,0,0,0,0,0.989,0.9891,0.9895,0.9894,0.9892,0.9891,0.99,0.9909,0.9877,0.9882,0.9873,0.9872,0.9882,0.9882,0.9885,0.9911,0.9911,0.9881,0.9882,0.9882,0.9883,0,0,0,0,0,0,0,0.989,0.9891,0.9908,0.9895,0.9893,0.9886,0.9885,0.9902,0.9889,0.9881,0.9879,0.9879,0.9881,0.9884,0.9885,0.9911,0.9881,0.9882,0.9883,0.9884,0.9965,0.9966,0,0,0,0,0,0,0.9891,0.9891,0.9908,0.9908,0.9888,0.9887,0.9887,0.9892,0.9889,0.9887,0.988,0.9878,0.9882,0.9883,0.9885,0.9924,0.9882,0.9884,0.9884,0.9963,0.9965,0.9966,0,0,0,0,0,0,0.9891,0.9893,0.9908,0.9899,0.99,0.9889,0.9896,0.9893,0.9896,0.9888,0.9886,0.9886,0.9881,0.9883,0.9904,0.9924,0.9884,0.9885,0.9962,0.9964,0.9966,1.0003,0,0,0,0,0,0,0.989,0.9893,0.9905,0.9899,0.9901,0.9928,0.9897,0.9894,0.9898,0.9895,0.9893,0.9891,0.988,0.9903,0.9906,0.9925,0.9886,0.996,0.9963,0.9965,1.0,1.0007,1.0012,0,0,0,0,0,0.9889,0.9916,0.9906,0.9908,0.9916,0.9929,0.993,0.9916,0.99,0.9912,0.9907,0.9891,0.9921,0.9905,0.9908,0.9928,0.9959,0.9962,0.9965,0.9998,1.0005,1.0012,0,0,0,0,0,0,0.9924,0.9915,0.9903,0.9929,0.993,0.9923,0.9938,0.9925,0.9931,0.9927,0.9911,0.9911,0.9935,0.9934,0.9916,0.9961,0.9937,0.9941,0.9961,0.9968,0.9974,0.9974,0.9887,0,0,0,0,0,0.9935,0.9946,0.9937,0.996,0.9961,0.995,0.9955,0.9945,0.9945,0.9946,0.9942,0.9944,0.9954,0.9961,0.9969,1.0,0.9999,1.0015,1.0021,1.0025,1.0029,1.0046,1.0054,0.9977,0.9977,0.9977,0,0,0.9957,0.9953,0.9961,0.9967,0.9967,0.9979,0.995,0.9964,0.9974,0.9948,0.9968,0.9965,0.9966,0.9993,1.0004,0.9992,1.005,1.0029,1.0033,1.0035,1.005,1.0058,1.0064,0.9979,0.9978,0.9978,0,0,1.0005,1.0002,1.0022,1.0022,1.0021,1.0013,1.0018,1.0013,1.0011,1.003,1.0011,1.0023,1.004,1.0041,1.0045,1.0093,1.0079,1.0096,1.0126,1.0143,1.0149,1.0154,1.0173,1.0179,1.01,1.01,1.01,0,1.0033,1.005,1.0034,1.0049,1.0053,1.0029,1.005,1.0051,1.0053,1.0057,1.0043,1.0064,1.0063,1.009,1.0102,1.0105,1.0111,1.0097,1.0149,1.0155,1.0159,1.0177,1.0183,1.0102,1.0102,1.0101,1.0101,0,1.0085,1.0097,1.0113,1.0115,1.0121,1.0139,1.0126,1.0134,1.0123,1.0117,1.0138,1.0136,1.0144,1.0149,1.0139,1.0175,1.0168,1.0152,1.0128,1.0169,1.0185,1.0192,1.0105,1.0104,1.0104,1.0103,0,0,1.0154,1.0148,1.0154,1.0156,1.0153,1.0163,1.018,1.0187,1.0194,1.0197,1.0212,1.0227,1.0212,1.0216,1.0205,1.022,1.026,1.0202,1.0202,1.0214,1.0301,1.0314,1.0321,1.025,1.0251,1.0252,1.0301,0,1.0201,1.0229,1.0216,1.0246,1.0258,1.0236,1.0251,1.0252,1.0246,1.0256,1.0251,1.0262,1.0241,1.0243,1.0257,1.0252,1.0277,1.0248,1.0265,1.0266,1.0266,1.033,1.0343,1.0389,1.0307,1.0308,1.0309,0,1.0259,1.0264,1.0295,1.0291,1.0296,1.0309,1.0315,1.0325,1.0325,1.0321,1.0325,1.0311,1.0329,1.0304,1.0329,1.0309,1.0315,1.0314,1.0316,1.0318,1.0291,1.0335,1.0404,1.0411,1.0318,1.0318,1.0317,0,1.0308,1.0322,1.0343,1.0345,1.034,1.0351,1.035,1.0349,1.0354,1.036,1.0363,1.0371,1.0376,1.0382,1.0372,1.0354,1.0398,1.0372,1.0396,1.0396,1.0407,1.0407,1.048,1.0409,1.0409,1.0409,1.0409,0,1.0362,1.0382,1.0365,1.0378,1.0401,1.0385,1.0408,1.0405,1.0404,1.0417,1.0398,1.0411,1.0395,1.0406,1.0398,1.0421,1.0422,1.042,1.0418,1.0422,1.0423,1.0427,1.0424,1.0411,1.041,1.041,1.0409,0,1.0421,1.041,1.0432,1.0426,1.0425,1.0442,1.0437,1.045,1.0443,1.0459,1.0462,1.0452,1.0465,1.0454,1.0466,1.0461,1.0491,1.0483,1.0491,1.0489,1.0513,1.0512,1.0592,1.0603,1.0524,1.0525,1.0526,0,1.0457,1.0472,1.0468,1.0474,1.0474,1.0486,1.0491,1.0476,1.0483,1.0485,1.0498,1.0508,1.0516,1.0537,1.0531,1.0541,1.0534,1.0562,1.0535,1.054,1.0536,1.0536,1.0538,1.0567,1.0568,1.0569,1.057,0,1.0521,1.0515,1.0523,1.053,1.0537,1.0542,1.0545,1.0552,1.0537,1.0546,1.0558,1.0564,1.0576,1.0587,1.0595,1.0594,1.058,1.0578,1.0584,1.0589,1.0593,1.0592,1.0506,1.0576,1.0576,1.0575,1.0575,1.0574,1.057,1.0583,1.0582,1.0593,1.0593,1.0597,1.0609,1.0603,1.0613,1.0621,1.0612,1.0627,1.0628,1.0637,1.0638,1.0651,1.0639,1.0648,1.065,1.0653,1.0657,1.059,1.0652,1.0652,1.0651,1.0651,1.0651,0,1.0635,1.0633,1.0643,1.0648,1.0656,1.0641,1.0644,1.0652,1.0666,1.0667,1.0675,1.069,1.0701,1.0696,1.0706,1.0716,1.071,1.072,1.0719,1.072,1.0666,1.066,1.0725,1.0724,1.0724,1.0724,1.0724,1.0724,1.067,1.0691,1.0685,1.0707,1.0705,1.0719,1.0722,1.0726,1.0728,1.0744,1.0753,1.075,1.0749,1.0759,1.0769,1.0767,1.0772,1.0784,1.078,1.073,1.0723,1.0716,1.0711,1.0785,1.0785,1.0833,1.0833,1.0834]},{"header":{"parameterUnit":"m.s-1","parameterCategory":1,"la1":30.2991,"la2":30.254,"lo1":-89.0895,"lo2":-89.0444,"dy":0.0017,"dx":0.0017,"nx":28,"ny":28,"refTime":"2024-12-09T09:00:00:Z","depth":0,"parameterNumber":3,"parameterNumberName":"V-component_of_WINDS"},"data":[0,0,0,0,0,0,0,0,0,0,0,0,0,0,0,0,0,0,0,0,0,0,0,0,0,0,0,0,0,0,0,0,0,0,0,0,0,0,0,0,0,0,0,0,0,0,0,0,0,0,0,0,0,0,0,0,0,0,4.1496,4.1497,0,4.1653,4.1655,4.1657,4.1671,4.1669,4.1668,4.1666,4.183,4.1836,4.1842,0,0,0,0,0,0,0,0,0,0,0,0,0,4.1209,4.1214,4.1495,4.1497,4.1499,4.1653,4.1655,4.1657,4.1671,4.1669,4.1667,4.1665,4.1828,4.1835,4.1842,0,0,0,0,0,0,0,0,0,0,0,0,0,4.1347,4.1216,4.1495,4.1525,4.1529,4.1653,4.1655,4.1658,4.1672,4.1669,4.1667,4.1664,4.1826,4.1834,4.1843,4.1949,0,0,4.187,4.1874,0,0,0,0,0,0,0,0,4.1339,4.1357,4.1518,4.1523,4.1528,4.164,4.1614,4.1756,4.1672,4.1618,4.1666,4.1663,4.1769,4.1782,4.1818,4.1956,4.1964,4.1871,4.1877,4.188,4.1883,0,0,0,0,0,0,0,4.133,4.1351,4.1558,4.1521,4.1527,4.1531,4.1548,4.1641,4.1706,4.1622,4.1624,4.1642,4.1771,4.1809,4.1822,4.1966,4.1871,4.1879,4.1884,4.1888,4.2202,4.2205,0,0,0,0,0,0,4.1314,4.1343,4.1553,4.1563,4.1425,4.1538,4.1557,4.1606,4.1705,4.1717,4.1644,4.1642,4.1795,4.1811,4.1827,4.196,4.188,4.1889,4.1894,4.2199,4.2202,4.2206,0,0,0,0,0,0,4.1308,4.1333,4.1547,4.1453,4.1481,4.1546,4.1601,4.1611,4.1649,4.1721,4.1733,4.1671,4.1794,4.1815,4.1919,4.1965,4.1893,4.1901,4.2195,4.22,4.2204,4.2223,0,0,0,0,0,0,4.13,4.133,4.137,4.1454,4.1486,4.1635,4.1604,4.1616,4.1664,4.1663,4.1749,4.1761,4.1793,4.1905,4.1928,4.1976,4.1908,4.2191,4.2197,4.2203,4.2219,4.2228,4.2235,0,0,0,0,0,4.1289,4.137,4.1372,4.1398,4.1537,4.1637,4.1656,4.169,4.1667,4.1709,4.1756,4.1758,4.1956,4.1916,4.1941,4.1993,4.2189,4.2196,4.2202,4.2215,4.2226,4.2235,0,0,0,0,0,0,4.129,4.1381,4.1385,4.1495,4.1558,4.1639,4.1693,4.17,4.1772,4.1768,4.1809,4.1828,4.1931,4.1972,4.1926,4.2101,4.207,4.2082,4.2071,4.2082,4.2091,4.208,4.1915,0,0,0,0,0,4.1303,4.1376,4.1452,4.1541,4.1573,4.1627,4.1672,4.1693,4.1761,4.1788,4.1842,4.1909,4.1986,4.2036,4.2111,4.2224,4.2244,4.2272,4.228,4.2287,4.2298,4.2363,4.2377,4.2228,4.2228,4.2228,0,0,4.1331,4.1389,4.1433,4.1543,4.1595,4.1671,4.165,4.1731,4.1788,4.1801,4.1903,4.1945,4.2021,4.2131,4.2182,4.2168,4.2343,4.2296,4.23,4.2308,4.2371,4.2385,4.2398,4.2232,4.2231,4.2231,0,0,4.1421,4.1471,4.1552,4.1604,4.1683,4.1719,4.1738,4.1819,4.1847,4.1949,4.1961,4.203,4.2162,4.2217,4.2262,4.2373,4.2379,4.2396,4.2441,4.2503,4.2515,4.2526,4.2568,4.2582,4.2406,4.2406,4.2406,0,4.1446,4.156,4.1593,4.1674,4.1723,4.1737,4.1821,4.187,4.1969,4.2003,4.1986,4.2152,4.2205,4.2328,4.2356,4.2391,4.2416,4.2387,4.2511,4.2522,4.2532,4.2573,4.2588,4.2408,4.2407,4.2407,4.2407,0,4.1587,4.1666,4.1723,4.1818,4.1873,4.1954,4.2002,4.2053,4.2069,4.2107,4.2213,4.2276,4.2365,4.2396,4.2412,4.2522,4.2512,4.2502,4.2472,4.2548,4.2586,4.2602,4.241,4.241,4.2409,4.2409,0,0,4.1683,4.1796,4.1816,4.1861,4.1948,4.2011,4.2093,4.218,4.2224,4.2292,4.2364,4.2475,4.2467,4.2518,4.2541,4.2596,4.2683,4.258,4.2583,4.2599,4.2811,4.2819,4.2836,4.2686,4.2689,4.2692,4.2805,0,4.1785,4.1932,4.1965,4.2093,4.2167,4.2182,4.2255,4.2317,4.2355,4.2424,4.2466,4.2545,4.2527,4.2559,4.2613,4.2661,4.2726,4.2653,4.2756,4.2759,4.2739,4.2856,4.2865,4.2969,4.282,4.2823,4.2825,0,4.1923,4.1994,4.2129,4.2208,4.2241,4.2305,4.2388,4.2453,4.2525,4.2549,4.2606,4.2623,4.2712,4.2675,4.2799,4.2748,4.2792,4.2822,4.2826,4.2839,4.2798,4.2875,4.3003,4.3019,4.2848,4.2846,4.2845,0,4.1982,4.2111,4.2209,4.2246,4.234,4.2386,4.2427,4.2496,4.2546,4.2619,4.2652,4.2734,4.2779,4.2842,4.2882,4.2851,4.3003,4.297,4.3027,4.3026,4.306,4.3058,4.3199,4.3084,4.3084,4.3084,4.3084,0,4.2093,4.2176,4.2238,4.2298,4.2392,4.2429,4.2521,4.2562,4.2623,4.2693,4.271,4.2776,4.2823,4.2895,4.2927,4.3026,4.3045,4.3068,4.3076,4.3068,4.3066,4.3099,4.3094,4.3088,4.3087,4.3086,4.3086,0,4.2176,4.222,4.2329,4.2409,4.2431,4.2497,4.2566,4.2626,4.2664,4.2752,4.2775,4.2835,4.2921,4.2966,4.3074,4.3095,4.3207,4.3209,4.3183,4.3187,4.3242,4.3237,4.3413,4.3438,4.3304,4.3305,4.3306,0,4.2245,4.2309,4.2397,4.2444,4.2487,4.2563,4.2615,4.2654,4.2707,4.2794,4.2844,4.2931,4.3003,4.314,4.3194,4.3277,4.3283,4.3338,4.3295,4.3286,4.3287,4.3283,4.3291,4.3347,4.3348,4.3349,4.335,0,4.2364,4.2383,4.2456,4.2538,4.2599,4.2665,4.273,4.2768,4.2819,4.2878,4.2966,4.3021,4.3131,4.3218,4.3305,4.3349,4.3359,4.3362,4.3381,4.3375,4.3358,4.337,4.3206,4.3359,4.3358,4.3357,4.3357,4.3356,4.2444,4.2503,4.2573,4.2655,4.2708,4.2769,4.283,4.2875,4.2949,4.3042,4.306,4.3154,4.3225,4.3343,4.339,4.3464,4.3453,4.3479,4.3486,4.3492,4.3496,4.3343,4.348,4.348,4.348,4.3479,4.3479,0,4.2566,4.2612,4.2687,4.2778,4.2842,4.2844,4.2917,4.2971,4.3053,4.3118,4.3189,4.3291,4.3376,4.3436,4.3522,4.3571,4.3578,4.3592,4.359,4.3601,4.35,4.3477,4.3586,4.3586,4.3586,4.3586,4.3585,4.3585,4.2637,4.2737,4.2764,4.2891,4.2937,4.3028,4.307,4.3127,4.3179,4.3293,4.3363,4.3401,4.3465,4.3556,4.3635,4.365,4.3682,4.3698,4.3714,4.3619,4.3608,4.3597,4.3576,4.3704,4.3704,4.3809,4.381,4.3811]}]]